Location: Utrecht
(52.0907°N, 5.1214°E)
Time: 18:18:34
(UTC+02:00)

DIWATA 2B (PO-101) - Pass Details

Date: 02 July 2022
Orbit: 583 x 599 km, 98.0° (Epoch: 07 August)

Event Time Altitude Azimuth Distance (km) Brightness Sun altitude
Exits shadow 03:47:45 12° 185° (S) 1,833 ? -10.1°
Maximum altitude 03:51:34 49° 260° (W) 779 ? -9.8°
Drops below altitude 10° 03:55:42 10° 336° (NNW) 1,953 ? -9.5°
Sets 03:57:56 0° 342° (NNW) 2,860 ? -9.3°
